Weather History for Sedalia, MO

Change the Weather History Date:

Monday, April 22, 2013

  Actual Average Record
Temperature  
Mean Temperature 60 °F 59 °F  
Max Temperature 72 °F 69 °F 90 °F (1965)
Min Temperature 47 °F 48 °F 25 °F (1986)
Degree Days  
Heating Degree Days 5 7  
Month to date heating degree days 275 230  
Since 1 July heating degree days 4516 4432  
Cooling Degree Days 0 1  
Month to date cooling degree days 12 21  
Year to date cooling degree days 13 24  
Growing Degree Days 8 (Base 50)    
Moisture  
Dew Point 41 °F    
Average Humidity 54    
Maximum Humidity 76    
Minimum Humidity 31    
Precipitation  
Precipitation T in 0.15 in 3.50 in (1944)
Month to date precipitation 4.70 2.77  
Year to date precipitation 12.37 8.98  
Sea Level Pressure  
Sea Level Pressure 30.05 in    
Wind  
Wind Speed 9 mph (SSE)    
Max Wind Speed 23 mph    
Max Gust Speed 33 mph    
Visibility 10 miles    
Events Rain    
T = Trace of Precipitation, MM = Missing Value Source: NWS Daily Summary

Daily Weather History Graph

Daily Weather History Graph

Search for Another Location

Airport:

Trip Planner

Search our weather history database for the weather conditions in past years. The results will help you decide how hot, cold, wet, or windy it might be!

Date:

Astronomy

Apr. 22, 2013 Rise Set
Actual Time 6:26 AM CDT 7:56 PM CDT
Civil Twilight 5:58 AM CDT 8:24 PM CDT
Nautical Twilight 5:24 AM CDT 8:58 PM CDT
Astronomical Twilight 4:49 AM CDT 9:34 PM CDT
Moon 4:48 PM CDT (4/22) 4:19 AM CDT (4/22)
Length of Visible Light 14h 26m
Length of Day
13h 30m
Waxing Gibbous, 88% of the Moon is Illuminated
Apr 22
Waxing Gibbous
Apr 25
Full
May 2
Last Quarter
May 9
New
May 17
First Quarter

Hourly Weather History & Observations

Time (CDT) Temp. Dew Point Humidity Pressure Visibility Wind Dir Wind Speed Gust Speed Precip Events Conditions
2:53 AM 54.0 °F 37.9 °F 55% 30.16 in 10.0 mi South 10.4 mph - N/A   Scattered Clouds
3:53 AM 51.1 °F 39.0 °F 63% 30.16 in 10.0 mi SSE 10.4 mph - N/A   Clear
4:53 AM 50.0 °F 39.0 °F 66% 30.15 in 10.0 mi South 10.4 mph - N/A   Clear
5:53 AM 48.0 °F 39.0 °F 71% 30.15 in 10.0 mi South 10.4 mph - N/A   Clear
6:53 AM 46.9 °F 39.9 °F 77% 30.16 in 10.0 mi SSE 9.2 mph - N/A   Clear
7:53 AM 53.1 °F 39.9 °F 61% 30.15 in 10.0 mi SSE 9.2 mph - N/A   Clear
8:53 AM 57.9 °F 39.0 °F 49% 30.14 in 10.0 mi South 13.8 mph - N/A   Clear
9:53 AM 61.0 °F 42.1 °F 50% 30.14 in 10.0 mi South 10.4 mph - N/A   Clear
10:53 AM 63.0 °F 43.0 °F 48% 30.13 in 10.0 mi SSE 9.2 mph - N/A   Clear
11:53 AM 66.9 °F 44.1 °F 44% 30.10 in 10.0 mi SSE 5.8 mph - N/A   Clear
12:53 PM 66.9 °F 43.0 °F 42% 30.08 in 10.0 mi South 9.2 mph - N/A   Clear
1:53 PM 71.1 °F 42.1 °F 35% 30.02 in 10.0 mi SSE 10.4 mph 17.3 mph N/A   Partly Cloudy
2:53 PM 71.1 °F 39.9 °F 32% 29.99 in 10.0 mi South 6.9 mph - N/A   Clear
3:53 PM 69.1 °F 39.9 °F 35% 29.95 in 10.0 mi SSE 13.8 mph - N/A   Clear
4:53 PM 66.9 °F 39.0 °F 36% 29.95 in 10.0 mi SSE 11.5 mph - N/A   Partly Cloudy
5:53 PM 64.9 °F 39.0 °F 39% 29.96 in 9.0 mi SSE 21.9 mph 33.4 mph 0.00 in Rain Light Rain
6:53 PM 62.1 °F 44.1 °F 52% 29.94 in 10.0 mi SE 5.8 mph - 0.00 in Rain Light Rain
7:53 PM 60.1 °F 48.0 °F 64% 29.94 in 10.0 mi Calm Calm - 0.00 in   Overcast
8:53 PM 60.1 °F 43.0 °F 53% 29.95 in 10.0 mi SE 5.8 mph - N/A   Overcast
9:53 PM 59.0 °F 43.0 °F 55% 29.95 in 10.0 mi SE 5.8 mph - N/A   Mostly Cloudy
10:53 PM 59.0 °F 44.1 °F 58% 29.97 in 10.0 mi NE 5.8 mph - N/A   Overcast
11:53 PM 61.0 °F 41.0 °F 48% 29.97 in 10.0 mi Calm Calm - N/A   Scattered Clouds